Regional Weather Roundup
Issued by NWS

Home | Current Version | Previous Version | Text Only | Print | Product List | Glossary Off
Versions: 1 2 3 4 5 6 7 8 9 10 11 12 13 14 15 16 17 18 19 20 21 22 23 24 25 26 27 28 29 30 31 32 33 34 35 36 37 38 39 40 41 42 43 44 45 46 47 48 49 50

000
ASUS43 KLSX 220910
RWRMO

WEATHER SUMMARY FOR MISSOURI
NATIONAL WEATHER SERVICE SPRINGFIELD MO
300 AM CST WED FEB 22 2017

NOTE: "FAIR" INDICATES FEW OR NO CLOUDS BELOW 12,000 FEET WITH NO
       SIGNIFICANT WEATHER AND/OR OBSTRUCTIONS TO VISIBILITY.
       CURRENT SKY AND/OR WEATHER CONDITIONS ARE NOT AVAILABLE FOR
       CHILLICOTHE AND FARMINGTON.

MOZ001>031-035>038-043-044-053-054-221000-
...NORTHERN AND WESTERN MISSOURI...

CITY           SKY/WX    TMP DP  RH WIND       PRES   REMARKS
KANSAS CTY INT CLEAR     44  35  70 S9        29.81F
KANSAS C DTWN  CLEAR     44  37  76 CALM      29.82F
LEE`S SUMMIT   CLEAR     52  46  80 S8        29.83F
ST JOSEPH      CLEAR     46  36  68 S3        29.81F
CHILLICOTHE      N/A     48  44  86 S3        29.84S
KIRKSVILLE     CLEAR     53  52  96 S9        29.82F

$$
MOZ066>068-077>081-088>096-101>105-221000-
...SOUTHWEST MISSOURI...

CITY           SKY/WX    TMP DP  RH WIND       PRES   REMARKS
SPRINGFIELD    CLOUDY    54  54 100 S6        29.88F FOG
JOPLIN         CLEAR     50  50 100 S6        29.89F
BRANSON        FOG       52  52 100 CALM      29.91F VSB<1/4

$$
MOZ032>034-039>042-045>050-055>058-069>072-221000-
...CENTRAL MISSOURI...

CITY           SKY/WX    TMP DP  RH WIND       PRES   REMARKS
COLUMBIA       FOG       48  48 100 S6        29.86S VSB 1/4
JEFFERSON CITY FOG       48  48 100 SE5       29.86F VSB 1/2
ROLLA          FOG       54  54 100 S7        29.87F VSB 1/4
SEDALIA        FOG       49  49 100 S7        29.87F VSB 1/2
WHITEMAN AFB   CLEAR     53  53  99 SW9       29.83F
WARRENSBURG    CLEAR     46  45  93 S6        29.83F
OSAGE BEACH    FOG       48  48 100 CALM      29.89F VSB 1/2

$$
MOZ051-052-059>065-221000-
...EAST CENTRAL MISSOURI...

CITY           SKY/WX    TMP DP  RH WIND       PRES   REMARKS
ST LOUIS INTL  PTCLDY    53  51  93 CALM      29.88S
SPIRIT OF STL  FOG       53  53 100 CALM      29.87F VSB 1/4
ST CHARLES     FOG       52  52 100 NW3       29.88S VSB<1/4

$$
MOZ072>076-082>087-097>100-106>115-221000-
...SOUTH CENTRAL AND SOUTHEAST MISSOURI...

CITY           SKY/WX    TMP DP  RH WIND       PRES   REMARKS
CAPE GIRARDEAU CLOUDY    54  52  93 NW5       29.89R FOG
FARMINGTON     CLOUDY    55  54  96 S6        29.89F
POPLAR BLUFF   CLOUDY    59  58  96 CALM      29.89R
WEST PLAINS    CLOUDY    56  54  93 CALM      29.91F FOG

$$



USA.gov is the U.S. government's official web portal to all federal, state and local government web resources and services.